Flag for Brazil Weather past 2 weeks in Itabuna, Bahia, Brazil

Now
72 °F

Passing clouds.


Feels Like: 71 °F
Forecast: 59 / 85 °F
Wind: 3 mph from Northeast

Location: Salvador Aeroporto

Current Time: Sep 2, 2015 at 1:42:14 AM

Latest Report: Sep 2, 2015 at 1:00 AM


Visibility: N/A

Pressure: 30.01 "Hg

Humidity: 83%

Dew point: 66 °F

Location of ItabunaLocation

Historic Weather in Itabuna — Graph

°F

Itabuna temperature yesterday

Maximum temperature yesterday: 81 °F (at 10:00 AM)
Minimum temperature yesterday: 72 °F (at 4:00 AM)
Average temperature yesterday: 76 °F

Past Weeks' High & Low Weather Summary

 TemperatureHumidityPressure
High82 °F (Aug 21, 11:00 AM)100% (Aug 25, 8:00 AM)30.15 "Hg (Aug 25, 8:00 AM)
Low66 °F (Aug 20, 5:00 AM)58% (Aug 23, 10:00 AM)29.95 "Hg (Aug 20, 2:00 PM)
Average76 °F74%30.03 "Hg
* Reported Midnight between Aug 17 and Aug 18 — Midnight between Sep 1 and Sep 2, Itabuna, Weather by CustomWeather, © 2015

Note: Actual official high and low records may vary slightly from our data, if they occured in-between our weather recording intervals... More about our weather records

Advertising

Itabuna weather history for previous 24 hours

 ConditionsComfort  
Time TempWeatherWind HumidityBarometerVisibility
12:00 AM
Wed, Sep 2
73 °FPassing clouds.6 mph78%30.04 "HgN/A
11:00 PM
Tue, Sep 1
73 °FPassing clouds.7 mph78%30.04 "HgN/A
10:00 PM73 °FPassing clouds.7 mph78%30.04 "HgN/A
9:00 PM73 °FPassing clouds.6 mph78%30.04 "HgN/A
8:00 PM73 °FPassing clouds.8 mph83%30.01 "HgN/A
6:00 PM75 °FPassing clouds.7 mph69%29.98 "HgN/A
5:00 PM77 °FPassing clouds.6 mph65%30.01 "HgN/A
4:00 PM79 °FPassing clouds.10 mph65%30.01 "HgN/A
3:00 PM79 °FPassing clouds.9 mph65%30.01 "HgN/A
2:00 PM81 °FPassing clouds.10 mph58%30.04 "HgN/A
1:00 PM81 °FScattered clouds.8 mph62%30.04 "HgN/A
12:00 PM81 °FScattered clouds.7 mph62%30.07 "HgN/A
11:00 AM81 °FScattered clouds.9 mph58%30.09 "HgN/A
10:00 AM81 °FBroken clouds.6 mph62%30.09 "HgN/A
9:00 AM75 °FBroken clouds.3 mph74%30.09 "HgN/A
8:00 AM75 °FBroken clouds.3 mph69%30.07 "HgN/A
7:00 AM73 °FBroken clouds.12 mph78%30.07 "HgN/A
6:00 AM72 °FBroken clouds.3 mph78%30.07 "HgN/A
5:00 AM72 °FPartly cloudy.8 mph83%30.04 "HgN/A
4:00 AM72 °FPassing clouds.9 mph88%30.04 "HgN/A
3:00 AM73 °FPassing clouds.5 mph78%30.07 "HgN/A
2:00 AM75 °FPartly cloudy.9 mph74%30.07 "Hg5 mi
Weather by CustomWeather, © 2015

See weather overviewHow to use our weather pages